ARG1357 SULS-SABE

Flight info

Callsign ARG1357
Flight time 0h 41m
Altitude 24000
Route LUCIO A306 UGIMI UGIMI8Q
Aircraft B738/M-SDE2E3FGHIRWXY/LB1

Departure

Time 2026-05-05 16:44
Airport Capitan Corbeta CA Curbelo International Airport (SULS)

Arrival

Time 2026-05-05 17:26
Airport Aeroparque Jorge Newbery (SABE)
Time Latitude Longitude Altitude Speed Heading
2026-05-05 16:22 -34.85970 -55.09842 103 ft 0 kts 162°
2026-05-05 16:39 -34.85988 -55.09835 103 ft 0 kts 161°
2026-05-05 16:39 -34.85995 -55.09823 103 ft 6 kts 98°
2026-05-05 16:39 -34.85932 -55.09800 103 ft 15 kts 346°
2026-05-05 16:40 -34.85835 -55.09838 103 ft 14 kts 340°
2026-05-05 16:40 -34.85740 -55.09872 103 ft 14 kts 341°
2026-05-05 16:40 -34.85664 -55.09927 103 ft 13 kts 288°
2026-05-05 16:40 -34.85677 -55.10030 103 ft 12 kts 256°
2026-05-05 16:41 -34.85697 -55.10117 103 ft 12 kts 253°
2026-05-05 16:41 -34.85707 -55.10153 103 ft 11 kts 250°
2026-05-05 16:42 -34.85731 -55.10237 103 ft 12 kts 251°
2026-05-05 16:42 -34.85774 -55.10403 103 ft 24 kts 249°
2026-05-05 16:42 -34.85824 -55.10588 103 ft 22 kts 251°
2026-05-05 16:42 -34.85871 -55.10764 103 ft 21 kts 252°
2026-05-05 16:43 -34.85915 -55.10934 103 ft 21 kts 253°
2026-05-05 16:43 -34.85966 -55.11092 103 ft 17 kts 241°
2026-05-05 16:43 -34.85974 -55.11130 103 ft 2 kts 344°
2026-05-05 16:43 -34.85958 -55.11092 103 ft 16 kts 71°
2026-05-05 16:44 -34.85838 -55.10638 103 ft 99 kts 73°
2026-05-05 16:44 -34.85556 -55.09551 142 ft 165 kts 72°
2026-05-05 16:44 -34.85190 -55.08112 756 ft 187 kts 74°
2026-05-05 16:44 -34.85348 -55.06484 1501 ft 209 kts 117°
2026-05-05 16:45 -34.86477 -55.05331 2176 ft 221 kts 154°
2026-05-05 16:45 -34.88007 -55.05020 2816 ft 225 kts 187°
2026-05-05 16:45 -34.89460 -55.05508 3660 ft 215 kts 216°
2026-05-05 16:45 -34.90484 -55.06822 4293 ft 219 kts 245°
2026-05-05 16:46 -34.91067 -55.08559 5093 ft 227 kts 256°
2026-05-05 16:46 -34.91501 -55.10460 5840 ft 238 kts 259°
2026-05-05 16:46 -34.91883 -55.12452 6742 ft 244 kts 261°
2026-05-05 16:46 -34.92252 -55.14486 7681 ft 248 kts 261°
2026-05-05 16:47 -34.92623 -55.16524 8587 ft 252 kts 261°
2026-05-05 16:47 -34.93001 -55.18658 9503 ft 255 kts 263°
2026-05-05 16:47 -34.93168 -55.20796 10383 ft 258 kts 269°
2026-05-05 16:47 -34.93252 -55.23000 11171 ft 266 kts 269°
2026-05-05 16:48 -34.93336 -55.25326 11637 ft 284 kts 269°
2026-05-05 16:48 -34.93424 -55.27826 12016 ft 303 kts 269°
2026-05-05 16:48 -34.93517 -55.30467 12418 ft 320 kts 269°
2026-05-05 16:48 -34.93613 -55.33206 13052 ft 326 kts 270°
2026-05-05 16:49 -34.93710 -55.35988 13817 ft 329 kts 270°
2026-05-05 16:49 -34.93805 -55.38786 14571 ft 332 kts 270°
2026-05-05 16:49 -34.93901 -55.41612 15323 ft 334 kts 269°
2026-05-05 16:49 -34.93997 -55.44446 16055 ft 336 kts 269°
2026-05-05 16:50 -34.94093 -55.47294 16763 ft 338 kts 269°
2026-05-05 16:50 -34.94188 -55.50173 17455 ft 341 kts 269°
2026-05-05 16:50 -34.94284 -55.53068 18089 ft 344 kts 269°
2026-05-05 16:50 -34.94380 -55.55988 18757 ft 346 kts 268°
2026-05-05 16:51 -34.94476 -55.58926 19386 ft 349 kts 268°
2026-05-05 16:51 -34.94572 -55.61898 20001 ft 351 kts 268°
2026-05-05 16:51 -34.94685 -55.64860 20741 ft 350 kts 268°
2026-05-05 16:51 -34.94802 -55.67821 21474 ft 349 kts 268°
2026-05-05 16:52 -34.94913 -55.70774 22164 ft 349 kts 268°
2026-05-05 16:52 -34.95019 -55.73731 22850 ft 349 kts 268°
2026-05-05 16:52 -34.95122 -55.76672 23517 ft 349 kts 268°
2026-05-05 16:52 -34.95223 -55.79646 23877 ft 353 kts 268°
2026-05-05 16:53 -34.95324 -55.82644 24007 ft 354 kts 268°
2026-05-05 16:53 -34.95422 -55.85633 24018 ft 352 kts 268°
2026-05-05 16:53 -34.95519 -55.88609 24022 ft 349 kts 268°
2026-05-05 16:53 -34.95613 -55.91556 24023 ft 349 kts 268°
2026-05-05 16:54 -34.95707 -55.94517 24023 ft 349 kts 268°
2026-05-05 16:54 -34.95800 -55.97470 24023 ft 349 kts 268°
2026-05-05 16:54 -34.95892 -56.00419 24023 ft 349 kts 268°
2026-05-05 16:54 -34.95984 -56.03373 24023 ft 349 kts 268°
2026-05-05 16:55 -34.96075 -56.06329 24023 ft 349 kts 268°
2026-05-05 16:55 -34.96163 -56.09240 24023 ft 349 kts 268°
2026-05-05 16:55 -34.96252 -56.12189 24023 ft 349 kts 268°
2026-05-05 16:55 -34.96341 -56.15148 24023 ft 349 kts 268°
2026-05-05 16:56 -34.96428 -56.18094 24023 ft 349 kts 268°
2026-05-05 16:56 -34.96515 -56.21056 24023 ft 349 kts 268°
2026-05-05 16:56 -34.96601 -56.24006 24023 ft 349 kts 268°
2026-05-05 16:56 -34.96687 -56.26967 24023 ft 349 kts 268°
2026-05-05 16:57 -34.96772 -56.29916 24023 ft 348 kts 268°
2026-05-05 16:57 -34.96856 -56.32872 24023 ft 348 kts 268°
2026-05-05 16:57 -34.96939 -56.35825 24023 ft 348 kts 268°
2026-05-05 16:57 -34.97022 -56.38780 24024 ft 349 kts 268°
2026-05-05 16:58 -34.97104 -56.41734 24023 ft 349 kts 268°
2026-05-05 16:58 -34.97185 -56.44689 24023 ft 349 kts 268°
2026-05-05 16:58 -34.97264 -56.47602 24023 ft 348 kts 268°
2026-05-05 16:58 -34.97357 -56.50557 24023 ft 348 kts 268°
2026-05-05 16:59 -34.97450 -56.53506 24023 ft 348 kts 268°
2026-05-05 16:59 -34.97534 -56.56463 24023 ft 348 kts 268°
2026-05-05 16:59 -34.97612 -56.59415 24023 ft 348 kts 268°
2026-05-05 16:59 -34.97686 -56.62368 24023 ft 348 kts 268°
2026-05-05 17:00 -34.97758 -56.65318 24023 ft 348 kts 268°
2026-05-05 17:00 -34.97829 -56.68274 24023 ft 348 kts 268°
2026-05-05 17:00 -34.97899 -56.71222 24023 ft 348 kts 268°
2026-05-05 17:00 -34.97969 -56.74172 24023 ft 348 kts 268°
2026-05-05 17:01 -34.98038 -56.77126 24023 ft 348 kts 268°
2026-05-05 17:01 -34.98106 -56.80074 24023 ft 348 kts 268°
2026-05-05 17:01 -34.98175 -56.83027 24023 ft 348 kts 268°
2026-05-05 17:01 -34.98244 -56.85981 24023 ft 348 kts 268°
2026-05-05 17:02 -34.98312 -56.88931 24023 ft 348 kts 268°
2026-05-05 17:02 -34.98333 -56.91882 24023 ft 348 kts 270°
2026-05-05 17:02 -34.98310 -56.94834 24023 ft 348 kts 270°
2026-05-05 17:02 -34.98284 -56.97787 24023 ft 348 kts 270°
2026-05-05 17:03 -34.98261 -57.00737 24023 ft 348 kts 270°
2026-05-05 17:03 -34.98239 -57.03691 24023 ft 348 kts 270°
2026-05-05 17:03 -34.98218 -57.06643 24023 ft 348 kts 270°
2026-05-05 17:03 -34.98198 -57.09587 24023 ft 348 kts 270°
2026-05-05 17:04 -34.98178 -57.12537 24016 ft 348 kts 270°
2026-05-05 17:04 -34.98157 -57.15468 23772 ft 340 kts 270°
2026-05-05 17:04 -34.98137 -57.18301 23522 ft 332 kts 270°
2026-05-05 17:04 -34.98120 -57.21098 23270 ft 326 kts 270°
2026-05-05 17:05 -34.98104 -57.23838 23018 ft 321 kts 270°
2026-05-05 17:05 -34.98088 -57.26553 22763 ft 317 kts 270°
2026-05-05 17:05 -34.98069 -57.29235 22512 ft 316 kts 270°
2026-05-05 17:05 -34.98051 -57.31881 22257 ft 317 kts 271°
2026-05-05 17:06 -34.98031 -57.34606 21881 ft 316 kts 271°
2026-05-05 17:06 -34.98011 -57.37241 21593 ft 314 kts 271°
2026-05-05 17:06 -34.97990 -57.39910 21349 ft 316 kts 271°
2026-05-05 17:06 -34.97969 -57.42591 21098 ft 314 kts 271°
2026-05-05 17:07 -34.97947 -57.45240 20847 ft 311 kts 271°
2026-05-05 17:07 -34.97926 -57.47867 20597 ft 309 kts 271°
2026-05-05 17:07 -34.97908 -57.50492 20345 ft 308 kts 271°
2026-05-05 17:07 -34.97917 -57.53077 20097 ft 307 kts 271°
2026-05-05 17:08 -34.97915 -57.55704 19844 ft 306 kts 271°
2026-05-05 17:08 -34.97903 -57.58298 19594 ft 305 kts 271°
2026-05-05 17:08 -34.97885 -57.60878 19343 ft 304 kts 271°
2026-05-05 17:08 -34.97863 -57.63446 19092 ft 303 kts 271°
2026-05-05 17:09 -34.97839 -57.66006 18842 ft 302 kts 272°
2026-05-05 17:09 -34.97814 -57.68563 18592 ft 301 kts 272°
2026-05-05 17:09 -34.97787 -57.71115 18341 ft 300 kts 272°
2026-05-05 17:09 -34.97760 -57.73659 18090 ft 300 kts 272°
2026-05-05 17:10 -34.97733 -57.76195 17840 ft 299 kts 272°
2026-05-05 17:10 -34.97705 -57.78722 17604 ft 297 kts 272°
2026-05-05 17:10 -34.97678 -57.81236 17260 ft 295 kts 272°
2026-05-05 17:10 -34.97650 -57.83731 16884 ft 294 kts 272°
2026-05-05 17:11 -34.97624 -57.86177 16513 ft 292 kts 272°
2026-05-05 17:11 -34.97515 -57.88649 16131 ft 290 kts 280°
2026-05-05 17:11 -34.96956 -57.90995 15758 ft 288 kts 292°
2026-05-05 17:11 -34.96062 -57.93177 15378 ft 288 kts 298°
2026-05-05 17:12 -34.95026 -57.95255 15002 ft 287 kts 301°
2026-05-05 17:12 -34.93942 -57.97297 14626 ft 286 kts 301°
2026-05-05 17:12 -34.92870 -57.99332 14253 ft 285 kts 301°
2026-05-05 17:12 -34.91808 -58.01369 13879 ft 284 kts 300°
2026-05-05 17:13 -34.90757 -58.03402 13505 ft 284 kts 300°
2026-05-05 17:13 -34.89705 -58.05447 13129 ft 284 kts 300°
2026-05-05 17:13 -34.88662 -58.07481 12755 ft 283 kts 300°
2026-05-05 17:13 -34.87618 -58.09521 12378 ft 283 kts 300°
2026-05-05 17:14 -34.86578 -58.11558 12000 ft 283 kts 300°
2026-05-05 17:14 -34.85542 -58.13589 11622 ft 283 kts 300°
2026-05-05 17:14 -34.84498 -58.15636 11239 ft 284 kts 300°
2026-05-05 17:14 -34.83462 -58.17671 10865 ft 284 kts 300°
2026-05-05 17:15 -34.82417 -58.19722 10485 ft 284 kts 300°
2026-05-05 17:15 -34.81369 -58.21776 10139 ft 284 kts 300°
2026-05-05 17:15 -34.80684 -58.23116 10061 ft 278 kts 300°
2026-05-05 17:15 -34.79682 -58.25084 9917 ft 271 kts 299°
2026-05-05 17:16 -34.78702 -58.27037 9591 ft 271 kts 299°
2026-05-05 17:16 -34.77903 -58.28641 9313 ft 271 kts 299°
2026-05-05 17:16 -34.76932 -58.30593 8970 ft 271 kts 299°
2026-05-05 17:16 -34.76889 -58.30677 8955 ft 271 kts 299°
2026-05-05 17:17 -34.75936 -58.32570 8619 ft 271 kts 300°
2026-05-05 17:17 -34.75262 -58.33901 8377 ft 271 kts 300°
2026-05-05 17:17 -34.74281 -58.35830 8033 ft 271 kts 300°
2026-05-05 17:17 -34.73278 -58.37797 7674 ft 271 kts 300°
2026-05-05 17:18 -34.72283 -58.39741 7319 ft 271 kts 300°
2026-05-05 17:18 -34.71296 -58.41667 6960 ft 271 kts 300°
2026-05-05 17:18 -34.70298 -58.43614 6597 ft 271 kts 300°
2026-05-05 17:18 -34.69305 -58.45548 6233 ft 271 kts 300°
2026-05-05 17:19 -34.68298 -58.47509 5867 ft 271 kts 300°
2026-05-05 17:19 -34.67302 -58.49447 5509 ft 270 kts 300°
2026-05-05 17:19 -34.66309 -58.51378 5150 ft 269 kts 300°
2026-05-05 17:19 -34.65317 -58.53301 4813 ft 268 kts 301°
2026-05-05 17:20 -34.64299 -58.55159 4709 ft 258 kts 302°
2026-05-05 17:20 -34.63321 -58.56916 4643 ft 246 kts 302°
2026-05-05 17:20 -34.62382 -58.58607 4581 ft 235 kts 302°
2026-05-05 17:20 -34.61494 -58.60211 4517 ft 224 kts 302°
2026-05-05 17:21 -34.60514 -58.61647 4332 ft 221 kts 319°
2026-05-05 17:21 -34.59079 -58.62233 4199 ft 223 kts 355°
2026-05-05 17:21 -34.57673 -58.61596 4161 ft 220 kts 30°
2026-05-05 17:22 -34.55681 -58.58804 3389 ft 221 kts 46°
2026-05-05 17:22 -34.54723 -58.57352 2807 ft 227 kts 46°
2026-05-05 17:22 -34.53751 -58.55874 2559 ft 210 kts 46°
2026-05-05 17:22 -34.52889 -58.54564 2283 ft 196 kts 51°
2026-05-05 17:23 -34.52077 -58.53327 2146 ft 180 kts 54°
2026-05-05 17:23 -34.51337 -58.52191 2043 ft 161 kts 56°
2026-05-05 17:23 -34.50940 -58.51010 1780 ft 152 kts 89°
2026-05-05 17:23 -34.51310 -58.49846 1712 ft 148 kts 120°
2026-05-05 17:24 -34.51860 -58.48776 1601 ft 154 kts 122°
2026-05-05 17:24 -34.52489 -58.47674 1226 ft 160 kts 126°
2026-05-05 17:24 -34.53136 -58.46591 913 ft 156 kts 123°
2026-05-05 17:24 -34.53729 -58.45501 691 ft 153 kts 122°
2026-05-05 17:25 -34.54305 -58.44452 445 ft 146 kts 125°
2026-05-05 17:25 -34.54690 -58.43789 288 ft 142 kts 124°
2026-05-05 17:25 -34.55415 -58.42488 47 ft 136 kts 124°
2026-05-05 17:25 -34.55890 -58.41636 26 ft 93 kts 124°
2026-05-05 17:26 -34.56122 -58.41218 26 ft 33 kts 124°
2026-05-05 17:26 -34.56184 -58.41096 26 ft 9 kts 106°
2026-05-05 17:26 -34.56174 -58.41026 26 ft 9 kts 60°
2026-05-05 17:26 -34.56139 -58.40976 26 ft 6 kts
2026-05-05 17:27 -34.56118 -58.40986 26 ft 4 kts 317°
2026-05-05 17:27 -34.56073 -58.41057 26 ft 12 kts 306°
2026-05-05 17:27 -34.56028 -58.41129 26 ft 8 kts 307°
2026-05-05 17:27 -34.55993 -58.41181 26 ft 8 kts 308°
2026-05-05 17:28 -34.55961 -58.41232 26 ft 7 kts 307°
2026-05-05 17:28 -34.55931 -58.41281 26 ft 7 kts 306°
2026-05-05 17:28 -34.55912 -58.41308 26 ft 4 kts 331°
2026-05-05 17:28 -34.55888 -58.41299 26 ft 4 kts 30°
2026-05-05 17:29 -34.55865 -58.41284 26 ft 4 kts 29°
2026-05-05 17:29 -34.55843 -58.41276 26 ft 3 kts 345°
2026-05-05 17:29 -34.55827 -58.41296 26 ft 3 kts 302°
2026-05-05 17:29 -34.55812 -58.41314 26 ft 3 kts 353°
2026-05-05 17:30 -34.55794 -58.41300 26 ft 3 kts 37°
2026-05-05 17:30 -34.55778 -58.41286 26 ft 2 kts 36°
2026-05-05 17:30 -34.55776 -58.41284 26 ft 0 kts 36°